Regional Weather Roundup
Issued by NWS

Home | Current Version | Previous Version | Graphics & Text | Print | Product List | Glossary On
Versions: 1 2 3 4 5 6 7 8 9 10 11 12 13 14 15 16 17 18 19 20 21 22 23 24 25 26 27 28 29 30 31 32 33 34 35 36 37 38 39 40 41 42 43 44 45 46 47 48 49 50
000
ASUS43 KIND 030509
RWRIN

WEATHER ROUNDUP FOR INDIANA
NATIONAL WEATHER SERVICE INDIANAPOLIS IN
1200 AM EST TUE MAR 03 2015

NOTE: "FAIR" INDICATES FEW OR NO CLOUDS BELOW 12,000 FEET WITH NO
SIGNIFICANT WEATHER AND/OR OBSTRUCTIONS TO VISIBILITY.

* - STATION DOES NOT REPORT WEATHER SUCH AS PRECIPITATION OR FOG.

+ - STATION NOT QUALITY CONTROLLED BY THE NATIONAL WEATHER SERVICE.
    USE DATA WITH CAUTION...ESPECIALLY DEWPOINT AND RELATIVE
    HUMIDITY OBSERVATIONS.

INZ001>003-010>013-019-020-030600-
NORTHWEST INDIANA

CITY           SKY/WX    TMP DP  RH WIND       PRES   REMARKS
GARY /AIRPORT/ CLOUDY    28  13  51 SE5       30.29F WCI  23
KNOX *+          N/A     27   3  36 SE7       30.29F WCI  19
LA PORTE +     CLOUDY    27  18  69 S5        30.30F WCI  21
MICHIGAN CITY+ CLOUDY    27  10  50 S5        30.30F WCI  21
MONTICELLO +   CLOUDY    25  15  66 SE3       30.28F
RENSSELAER +   CLOUDY    27  19  74 SE7       30.29F WCI  19
VALPARAISO     CLOUDY    25  15  66 SE5       30.29F WCI  19

$$

LMZ046-743>745-030600-
SOUTHERN LAKE MICHIGAN

STATION/POSITION TIME  TEMP WIND        PRES
                       AIR  DIR/SP/G
                 (UTC) (F)  (DEG/KT/KT) (MB)
MICHIGAN CITY    0500   26  130/  6/  8   N/A

$$

INZ004-005-014>016-021>024-030600-
NORTH CENTRAL INDIANA

CITY           SKY/WX    TMP DP  RH WIND       PRES   REMARKS
GOSHEN         CLOUDY    25  15  66 S7        30.31F WCI  17
LOGANSPORT +   CLOUDY    25  19  80 E6        30.29F WCI  18
PERU/GRISSOM   CLOUDY    23  16  73 E9        30.26F WCI  13
ROCHESTER +    MOCLDY    28  16  59 E5        30.30F WCI  23
SOUTH BEND     CLOUDY    26  14  60 S7        30.32F WCI  18
WARSAW +       CLOUDY    25  14  63 CALM      30.32F

$$

INZ006>009-017-018-025>027-030600-
NORTHEAST INDIANA

CITY           SKY/WX    TMP DP  RH WIND       PRES   REMARKS
ANGOLA *+      CLOUDY    23  14  68 S5        30.31S WCI  17
AUBURN +       CLOUDY    25  16  68 CALM      30.33F
FORT WAYNE     CLOUDY    22  14  71 SE5       30.33F WCI  16
HUNTINGTON +   CLOUDY    23  11  61 CALM      30.31F

$$

INZ028-029-035-036-043>045-051>053-030600-
WEST CENTRAL INDIANA

CITY           SKY/WX    TMP DP  RH WIND       PRES   REMARKS
CRAWFORDSVL +  FAIR      23  11  59 SE7       30.26F WCI  15
GREENCASTLE +  FAIR      25  12  58 E7        30.27F WCI  17
LAFAYETTE      FAIR      25  15  66 SE7       30.28F WCI  17
TERRE HAUTE    FAIR      27  15  61 SE5       30.28F WCI  22

$$

INZ030>032-037>040-046>048-054>057-064-065-030600-
CENTRAL INDIANA

CITY           SKY/WX    TMP DP  RH WIND       PRES   REMARKS
CP ATTERBURY + FAIR      27  18  69 CALM      30.29F
FRANKFORT +    FAIR      23  16  74 E10       30.28F WCI  12
GREENWOOD *+   FAIR      25  12  58 E6        30.28F WCI  18
INDIANAPOLIS   NOT AVBL
-EAGLE CREEK   FAIR      25  15  66 E7        30.26F WCI  17
KOKOMO *+      FAIR      23  16  74 E8        30.29F WCI  14
MARION +       CLOUDY    24  15  68 SE6       30.31F WCI  17
MT COMFORT *+  FAIR      23   9  54 E7        30.28F WCI  15
SHELBYVILLE    FAIR      27  15  61 E10       30.28F WCI  17
ZIONSVILLE +   FAIR      24  14  66 E6        30.27F WCI  17

$$

INZ033-034-041-042-049-050-058-059-030600-
EAST CENTRAL INDIANA

CITY           SKY/WX    TMP DP  RH WIND       PRES   REMARKS
MUNCIE         FAIR      20  14  77 SE6       30.30F WCI  12

$$

INZ060-061-067>069-081>083-085>088-030600-
SOUTHWEST INDIANA

CITY           SKY/WX    TMP DP  RH WIND       PRES   REMARKS
EVANSVILLE     FAIR      32  20  61 NE6       30.26F WCI  26
HUNTINGBURG *+ FAIR      28  18  64 E6        30.28S WCI  22
WASHINGTON +   FAIR      26  16  66 CALM      30.28S

$$

INZ062-063-066-070>080-084-089>092-030600-
SOUTH CENTRAL AND SOUTHEAST INDIANA

CITY           SKY/WX    TMP DP  RH WIND       PRES   REMARKS
BLOOMINGTON    FAIR      27  16  63 E6        30.26F WCI  20
NORTH VERNON + FAIR      30  16  55 E6        30.29F WCI  24
SEYMOUR +      FAIR      25  18  74 NE3       30.28F

$$




USA.gov is the U.S. government's official web portal to all federal, state and local government web resources and services.